This is the latest recevied weather packets stored in our database for station/object KK7RJD. If no packets are shown the sender has not sent any weather packets the latest 10 day(s).
| Time | Temp. | Humidity | Pressure | Rain* | Wind** | Luminosity | Snow |
|---|---|---|---|---|---|---|---|
| 1778174300 | 13.89° C | 59% | 1013.3 hPa | 0 mm | - | 862 W/m² | - |
| 1778173998 | 13.89° C | 57% | 1013.7 hPa | 0 mm | - | 859 W/m² | - |
| 1778173694 | 13.89° C | 59% | 1013.7 hPa | 0 mm | - | 840 W/m² | - |
| 1778173391 | 13.33° C | 62% | 1013.6 hPa | 0 mm | - | 775 W/m² | - |
| 1778173088 | 13.33° C | 62% | 1013.8 hPa | 0 mm | - | 751 W/m² | - |
| 1778172783 | 13.33° C | 65% | 1013.7 hPa | 0 mm | - | 796 W/m² | - |
| 1778171874 | 12.78° C | 66% | 1013.7 hPa | 0 mm | - | 572 W/m² | - |
| 1778171571 | 12.78° C | 68% | 1013.5 hPa | 0 mm | - | 379 W/m² | - |
| 1778170963 | 12.78° C | 62% | 1013.5 hPa | 0 mm | - | 378 W/m² | - |
| 1778170357 | 12.78° C | 68% | 1013.4 hPa | 0 mm | - | 451 W/m² | - |
| 1778170052 | 12.78° C | 68% | 1013.6 hPa | 0 mm | - | 441 W/m² | - |
| 1778169749 | 12.78° C | 67% | 1013.4 hPa | 0 mm | - | 372 W/m² | - |
| 1778169445 | 13.33° C | 63% | 1013.4 hPa | 0 mm | - | 374 W/m² | - |
| 1778168536 | 11.67° C | 67% | 1013.6 hPa | 0 mm | - | 258 W/m² | - |
| 1778168232 | 11.67° C | 66% | 1013.3 hPa | 0 mm | - | 205 W/m² | - |
| 1778167929 | 11.67° C | 67% | 1013.3 hPa | 0 mm | - | 282 W/m² | - |
| 1778167321 | 11.67° C | 68% | 1013.3 hPa | 0 mm | - | 275 W/m² | - |
| 1778167017 | 11.11° C | 69% | 1013.3 hPa | 0 mm | - | 256 W/m² | - |
| 1778166714 | 10.56° C | 71% | 1013.5 hPa | 0 mm | - | 249 W/m² | - |
| 1778166411 | 10.56° C | 72% | 1013.5 hPa | 0 mm | - | 223 W/m² | - |
| 1778166108 | 10.56° C | 72% | 1014 hPa | 0 mm | - | 160 W/m² | - |
| 1778165501 | 10° C | 73% | 1014 hPa | 0 mm | - | 83 W/m² | - |
| 1778164896 | 10° C | 73% | 1014.2 hPa | 0 mm | - | 115 W/m² | - |
| 1778164592 | 10° C | 74% | 1013.6 hPa | 0 mm | - | 94 W/m² | - |
| 1778164289 | 10.56° C | 73% | 1013.7 hPa | 0 mm | - | 77 W/m² | - |
* Rain latest hour (hover to see other rain measurements)
** Current wind speed in m/s (hover to see current wind gust speed)